Location: Albany
(35.0170°S, 117.8920°E)
Time: 01:13:39
(UTC+08:00)

Explorer 7 - Pass Details

Date: 30 January 2021
Orbit: 484 x 677 km, 50.3° (Epoch: 01 March)

Event Time Altitude Azimuth Distance (km) Brightness Sun altitude
Rises 11:52:16 0° 2° (N) 2,980 10.8 71.4°
Reaches altitude 10° 11:55:56 10° 31° (NNE) 2,101 10.2 71.7°
Maximum altitude 11:57:58 13° 56° (NE) 1,946 10.0 71.8°
Drops below altitude 10° 12:00:01 10° 80° (E) 2,123 10.1 71.9°
Sets 12:03:45 0° 108° (ESE) 3,045 10.6 72.1°
